Location: Hardegarijp
(53.2135°N, 5.9415°E)
Time: 15:49:40
(UTC+00:00)

Daily predictions for brighter satellites

Satellite Brightness Start Highest point End
(mag) Time Altitude Azimuth Time Altitude Azimuth Time Altitude Azimuth
Cosmos 1869 Rocket 3.7 20:24:44 10° N 20:29:13 64° ENE 20:33:39 10° SSE
SL-24 R/B - RUBIN 2 3.7 20:25:13 10° NW 20:29:36 73° NE 20:34:06 10° SE
Cosmos 1980 Rocket 2.4 20:25:41 10° S 20:31:08 53° ESE 20:36:39 10° NE
CARTOSAT-1 3.6 20:27:41 10° SSE 20:32:00 85° WSW 20:36:21 10° NNW
ARGOS Delta rocket 4.4 20:29:07 10° N 20:34:38 81° WNW 20:40:05 10° SSW
Cosmos 2228 Rocket 3.7 20:30:35 10° SSE 20:34:52 41° E 20:39:09 10° NNE
Cosmos 1464 Rocket 4.0 20:29:50 10° S 20:36:02 88° E 20:42:13 10° N
ISS -2.9 20:35:00 10° W 20:38:08 37° SSW 20:41:15 10° SE
Cosmos 1378 4.1 20:35:12 10° SSE 20:38:24 29° E 20:41:36 10° NNE
Cosmos 2344 3.6 20:31:57 10° SSW 20:39:11 59° SE 20:46:50 10° NE
Cosmos 773 Rocket 4.1 20:34:13 10° NNW 20:39:28 77° WSW 20:44:38 10° SSE
Cosmos 1536 4.2 20:35:54 10° NNW 20:39:39 38° W 20:43:24 10° SSW
Cosmos 1844 Rocket 3.9 20:34:52 10° NNW 20:39:57 34° NE 20:45:00 10° ESE
Cosmos 2322 Rocket 3.9 20:37:10 10° SE 20:40:15 15° E 20:43:20 10° ENE
Cosmos 2369 3.7 20:35:11 10° SSW 20:40:47 69° ESE 20:46:26 10° NE
Spot 2 Rocket 3.5 20:36:29 10° SSE 20:41:31 76° ENE 20:46:34 10° NNW
Cosmos 1354 Rocket 4.1 20:36:29 10° S 20:41:40 59° ESE 20:46:54 10° NNE
SPOT 3 Rocket 3.8 20:37:36 10° S 20:42:45 74° WSW 20:47:55 10° NNW
ATLAS 2AS CENTAUR R/B 3.2 20:36:40 10° SSW 20:44:02 48° ESE 20:51:10 10° NE
H-2A R/B 3.4 20:40:37 10° N 20:44:29 41° WNW 20:48:20 10° SW
Cosmos 1092 Rocket 4.1 20:39:12 10° N 20:45:25 70° ENE 20:51:32 10° SSE
Okean 1 3.3 20:42:07 10° S 20:46:06 67° E 20:50:07 10° NNE
Nadezhda 4 Rocket 4.2 20:39:58 10° NNW 20:46:14 76° W 20:52:23 10° S
Meteor 2-4 Rocket 4.4 20:41:27 10° SSE 20:46:45 39° E 20:51:56 10° NNE
Cosmos 1486 Rocket 4.4 20:41:52 10° SSW 20:47:10 72° WNW 20:52:28 10° NNE
SL-4 R/B 4.4 20:45:47 10° WSW 20:48:13 14° SW 20:50:34 10° SSW
Meteor 1-19 Rocket 4.2 20:42:55 10° S 20:48:17 67° E 20:53:40 10° NNE
NOSS 3-4 (A) 3.6 20:42:40 10° SW 20:48:28 82° NW 20:54:55 10° NE
NOSS 3-4 (C) 3.6 20:42:42 10° SW 20:48:32 83° NW 20:54:59 10° NE
RESURS DK-1 2.8 20:46:00 10° S 20:49:52 40° ESE 20:53:44 10° NE
Cosmos 1697 Rocket 3.1 20:44:20 10° SW 20:50:00 71° NW 20:55:41 10° NNE
USA 267 3.7 20:48:12 10° E 20:54:41 67° N 21:01:10 10° WNW
ATLAS CENTAUR R/B 3.1 20:51:12 10° NW 20:55:46 36° NNE 21:00:13 10° E
Cosmos 1634 Rocket 4.3 20:50:53 10° SSE 20:56:48 49° E 21:02:43 10° NNE
Cosmos 44 Rocket 3.3 20:52:16 10° NW 20:56:59 71° SW 21:01:28 11° SSE
ARIANE 5 R/B 2.9 20:53:39 10° SSE 20:58:03 59° ENE 21:02:30 10° N
Cosmos 1707 Rocket 4.2 20:54:27 10° SSE 20:58:34 39° E 21:02:40 10° NNE
Cosmos 2227 4.3 20:56:39 10° NNW 21:02:27 85° WSW 21:07:59 11° SSE
Cosmos 158 Rocket 4.1 20:59:12 10° NNW 21:04:20 79° WSW 21:09:24 11° SSE
Cosmos 1184 Rocket 4.2 21:02:40 10° SW 21:05:28 35° WNW 21:08:19 10° N
ATLAS 3B R/B 3.0 20:58:41 10° NW 21:06:01 89° SW 21:13:24 11° SE
Cosmos 1975 2.9 21:05:33 10° NNW 21:09:39 88° W 21:13:33 11° S
NOSS 2-1 (E) 4.3 21:08:10 13° SSE 21:09:56 19° ESE 21:12:17 10° ENE
Cosmos 2026 Rocket 4.0 21:04:29 10° N 21:10:41 87° E 21:16:56 10° S
USA 81 4.2 21:09:08 10° SSE 21:14:17 58° E 21:19:28 10° NNE
CZ-4B R/B 4.0 21:12:38 10° NNW 21:15:08 21° WNW 21:17:36 10° WSW
NOSS 3-1 (C) 4.5 21:09:37 10° NW 21:16:20 56° NNE 21:24:26 10° ESE
Cosmos 1503 Rocket 4.4 21:11:12 10° SW 21:16:29 69° WNW 21:21:51 10° NNE
Meteor 1-4 Rocket 3.4 21:13:44 10° N 21:16:59 36° ENE 21:19:36 14° SE
ERS-1 Rocket 3.2 21:12:43 10° S 21:17:44 68° WSW 21:22:47 10° NNW
CZ-4C R/B 3.7 21:11:31 10° NW 21:17:47 48° NNE 21:25:22 10° E
SL-16 R/B 2.8 21:13:52 10° S 21:19:00 37° ESE 21:24:11 10° NE
Cosmos 1538 Rocket 4.1 21:14:25 10° NNW 21:19:43 81° WSW 21:24:18 13° SSE
CZ-2C R/B 3.8 21:17:29 10° NNE 21:22:16 76° ESE 21:27:03 10° S
Helios 1A Rocket 4.0 21:19:39 10° SSW 21:23:24 38° W 21:27:10 10° NNW
Cosmos 1733 Rocket 3.1 21:19:27 10° N 21:23:56 80° E 21:27:44 14° SSE
SAR-Lupe-4 4.1 21:27:26 10° NNE 21:30:53 41° E 21:33:22 17° SSE
Meteor 2-8 Rocket 4.4 21:25:25 10° S 21:31:30 75° E 21:37:35 10° NNE
Geosat 4.0 21:28:35 14° SE 21:32:53 90° ENE 21:37:57 10° NNW
SJ 16-02 1.9 21:29:22 10° SW 21:33:41 61° WNW 21:38:04 10° NNE
Meteor 1-18 Rocket 4.3 21:28:27 10° SSW 21:34:10 82° WNW 21:39:49 10° NNE
Cosmos 1908 Rocket 4.3 21:31:20 10° N 21:35:28 42° ENE 21:38:37 16° SE
Cosmos 2292 Rocket 4.0 21:32:45 10° NNW 21:35:36 33° W 21:38:15 10° SSW
Iridium 45 4.4 21:33:05 13° S 21:36:07 88° E 21:39:38 10° N
Cosmos 1356 4.4 21:35:10 18° SE 21:36:52 29° E 21:39:47 10° NNE
Cosmos 923 Rocket 4.2 21:32:29 10° NNW 21:37:50 71° ENE 21:42:10 16° SE
Cosmos 2278 3.8 21:33:49 10° SSW 21:39:30 85° WNW 21:45:14 10° NNE
Cosmos 1862 Rocket 3.7 21:37:31 14° S 21:41:17 64° E 21:45:44 10° NNE
Cosmos 1726 3.3 21:39:27 10° N 21:42:48 31° ENE 21:45:09 16° SE
Cosmos 2360 Rocket 3.2 21:40:42 16° SSE 21:44:12 29° ESE 21:48:58 10° NE
Cosmos 2263 Rocket 3.4 21:39:21 10° NW 21:44:15 32° WSW 21:49:07 10° SSW
Cosmos 2266 Rocket 4.3 21:40:17 10° N 21:46:29 57° ENE 21:51:20 16° SSE
Meteor 2-15 4.4 21:41:11 10° S 21:47:15 87° ESE 21:53:23 10° NNE
ALOS 2 4.2 21:44:37 11° ESE 21:48:06 26° ENE 21:51:45 10° N
NOSS 2-1 (C) 3.0 21:47:00 10° SSW 21:50:07 48° SE 21:53:19 10° NE
SPOT 5 4.3 21:46:23 10° SSW 21:51:10 34° W 21:55:50 10° NNW
SAR-Lupe-1 4.0 21:48:22 10° NNE 21:51:59 79° ESE 21:54:47 16° S
Terra 2.7 21:47:57 11° SSW 21:52:18 42° W 21:56:51 10° NNW
Cosmos 1441 Rocket 3.2 21:51:03 18° S 21:53:40 63° E 21:57:21 10° NNE
Cosmos 1346 Rocket 3.0 21:50:23 10° SSW 21:54:21 71° WNW 21:58:24 10° N
Cosmos 2112 Rocket 4.2 21:53:03 10° NNW 21:58:25 70° ENE 22:02:27 18° SE
Cosmos 2279 Rocket 4.0 21:53:29 12° S 21:59:17 85° E 22:05:34 10° NNE
USA 215 4.1 21:53:54 10° ENE 21:59:24 28° SE 22:03:42 15° S
Cosmos 1680 Rocket 3.6 21:54:10 10° NNW 21:59:30 79° ENE 22:03:26 18° SSE
Cosmos 2278 Rocket 4.0 21:54:51 10° NNW 21:59:37 27° NE 22:04:23 10° E
NOSS 2-1 (D) 2.7 21:57:24 10° SSW 22:00:33 60° SE 22:03:50 10° NE
Iridium 2 3.9 21:58:01 10° N 22:01:46 66° W 22:04:23 18° S
Cosmos 990 Rocket 4.2 21:57:54 15° S 22:02:04 54° ESE 22:07:11 10° NNE
Meteor 1-12 Rocket 4.4 21:58:30 10° NNW 22:04:30 81° ENE 22:08:54 19° SSE
Cosmos 1818 3.6 22:02:29 10° NW 22:07:59 85° SW 22:12:08 18° SE
Cosmos 1066 Rocket 4.2 22:05:06 15° S 22:09:53 76° E 22:15:32 10° NNE
ADEOS Rocket 3.9 22:05:31 11° ESE 22:10:24 38° ENE 22:16:02 10° N
Iridium 4 Rocket 3.5 22:06:02 10° N 22:10:31 61° E 22:13:44 21° SSE
Spot 4 4.1 22:07:13 19° SE 22:10:36 61° ENE 22:15:21 10° N
ISS -1.4 22:13:11 10° WSW 22:14:12 11° SW 22:14:21 11° SW
Cosmos 1980 Rocket 3.7 22:10:05 10° WSW 22:15:22 39° NW 22:20:42 10° NNE
Cosmos 1898 Rocket 3.9 22:11:50 19° S 22:15:26 49° ESE 22:20:34 10° NE
Okean 1-7 3.2 22:17:25 22° S 22:20:07 60° E 22:24:26 10° NNE
Iridium 51 3.9 22:21:01 25° S 22:22:57 90° N 22:26:35 10° N
Cosmos 2322 Rocket 2.1 22:18:01 11° SSW 22:23:22 75° ESE 22:28:59 10° NE
Cosmos 1844 Rocket 2.8 22:18:42 10° NW 22:24:14 63° WSW 22:27:57 21° S
Cosmos 1805 4.0 22:22:17 10° NNW 22:26:01 45° W 22:28:28 19° SSW
Okean 3 3.7 22:25:02 24° SSE 22:27:22 54° E 22:31:33 10° NNE
RESURS DK-1 4.1 22:24:10 10° WSW 22:27:56 33° NW 22:31:43 10° NNE
Cosmos 2333 Rocket 3.0 22:25:18 21° SSE 22:28:21 35° ESE 22:33:27 10° NE
H-2A R/B 4.1 22:26:33 10° NNE 22:30:25 39° E 22:32:21 24° SSE
Cosmos 1461 3.2 22:26:29 10° NW 22:30:34 64° NE 22:33:54 16° ESE
BREEZE-M DEB (TANK) 4.0 22:29:56 10° WSW 22:31:52 18° SSW 22:31:52 18° SSW
USA 229 DEB 4.3 22:26:31 10° NW 22:33:38 65° NE 22:41:18 10° ESE
USA 229 4.3 22:26:37 10° NW 22:33:43 65° NE 22:41:22 10° ESE
ATLAS 2AS CENTAUR R/B 3.4 22:27:12 10° WSW 22:34:56 67° NW 22:42:19 10° NE
ATLAS CENTAUR R/B 1.8 22:30:03 10° NW 22:34:56 68° SW 22:37:50 23° SSE
USA 267 3.2 22:31:04 10° ESE 22:37:38 84° SSW 22:44:14 10° WNW
Meteor 1-23 Rocket 4.4 22:34:01 21° S 22:38:01 67° E 22:43:50 10° NNE
Cosmos 1733 4.5 22:35:42 10° NNW 22:39:05 32° W 22:41:23 17° SW
Cosmos 1766 3.6 22:37:21 10° NNW 22:41:14 57° W 22:43:23 24° SSW
NOSS 2-2 (E) 4.4 22:38:08 10° NW 22:42:44 67° NE 22:49:09 10° ESE
Cosmos 2219 Rocket 2.9 22:44:47 22° SSE 22:47:40 37° ESE 22:52:47 10° NE
Cosmos 1844 4.2 22:42:16 10° NW 22:47:53 52° WSW 22:51:27 22° S
Cosmos 1703 Rocket 3.7 22:48:15 21° SSW 22:51:09 76° WNW 22:55:36 10° N
Cosmos 2344 4.4 22:46:34 10° W 22:53:46 53° NNW 23:02:07 10° NE
Cosmos 372 Rocket 4.2 22:51:17 24° S 22:54:13 53° ESE 22:59:17 10° NNE
ATLAS 3B R/B 4.0 22:49:58 10° WNW 22:56:06 29° WSW 23:00:39 16° SSW
Cosmos 1655 Rocket 4.5 22:53:43 10° NNW 22:59:45 52° W 23:04:10 18° SSW
NOSS 2-1 (E) 3.8 22:56:49 10° WSW 22:59:55 48° NW 23:03:20 10° NE
NOSS 3-1 (A) 4.0 22:53:11 10° NW 23:00:20 90° NE 23:08:54 10° SE
Cosmos 1707 3.2 23:00:36 28° SSE 23:02:16 46° E 23:06:00 10° NNE
Cosmos 1782 Rocket 3.9 22:58:11 10° NNW 23:02:27 54° W 23:04:50 24° SSW
SL-16 R/B 3.0 22:57:28 10° SW 23:03:00 52° NW 23:08:34 10° NNE
ERS-2 2.2 23:01:48 10° NNE 23:05:24 60° ESE 23:06:52 32° S
CZ-4C R/B 2.9 22:59:59 10° NW 23:06:56 79° SW 23:14:17 14° SE
NOSS 3-1 (C) 4.1 23:00:25 10° NW 23:07:34 63° SW 23:14:02 18° SSE
Okean 2 4.2 23:06:39 24° SE 23:08:30 38° E 23:12:19 10° NNE
Cosmos 1238 Rocket 3.2 23:07:59 10° N 23:10:46 35° ENE 23:11:57 24° ESE
USA 290 3.7 23:10:46 22° ESE 23:11:15 23° ESE 23:13:53 10° NE
SJ 16-02 4.3 23:11:02 10° WNW 23:13:12 13° NW 23:15:23 10° N
SWARM A 4.5 23:12:50 31° SSW 23:14:14 63° W 23:17:36 10° N
Gblst 52 Del rocket 4.3 23:09:14 10° SW 23:15:24 57° SSE 23:20:58 10° E
Cosmos 1470 3.1 23:13:28 10° NNW 23:17:17 55° W 23:19:01 29° SSW
Cosmos 1726 3.7 23:14:37 10° NNW 23:17:41 25° W 23:19:26 18° SW
Cosmos 2237 Rocket 3.9 23:14:56 14° SE 23:17:41 20° E 23:21:38 10° NE
KORONAS-FOTON 4.4 23:16:49 27° SSE 23:18:22 43° E 23:22:01 10° NNE
Cosmos 1300 Rocket 3.7 23:14:17 10° NNW 23:18:37 66° W 23:20:51 27° S
NOSS 2-2 (D) 4.1 23:14:06 10° NW 23:18:44 85° NE 23:25:15 10° SE
Cosmos 1745 Rocket 4.5 23:14:12 10° N 23:20:21 54° ENE 23:25:02 17° SE
COSMOS 2428 3.1 23:17:53 24° S 23:21:00 47° ESE 23:26:26 10° NE
Cosmos 2151 Rocket 3.7 23:17:04 10° N 23:21:29 67° ENE 23:23:57 25° SSE
PSLV R/B 4.4 23:17:22 10° NNE 23:21:30 39° E 23:23:40 24° SSE
ALOS 2 3.1 23:22:00 25° SSW 23:24:14 48° W 23:28:30 10° NNW
Cosmos 2242 Rocket 4.3 23:21:24 19° SW 23:24:29 50° WNW 23:28:56 10° N
Cosmos 1242 Rocket 2.4 23:21:00 10° NNW 23:24:37 86° W 23:26:07 34° S
Okean 2 Rocket 3.1 23:21:00 10° N 23:25:34 82° E 23:28:05 26° SSE
Cosmos 1937 Rocket 3.7 23:22:46 17° SW 23:26:54 70° WNW 23:32:12 10° NNE
Cosmos 2360 Rocket 2.6 23:22:24 11° SW 23:27:49 64° NW 23:33:29 10° NNE
Cosmos 1943 Rocket 3.9 23:23:20 10° NNW 23:28:24 32° NE 23:33:27 10° ESE
Cosmos 405 Rocket 3.8 23:28:20 23° SE 23:29:52 31° E 23:33:16 10° NNE
Cosmos 1437 Rocket 3.4 23:27:49 10° N 23:31:28 46° ENE 23:33:33 22° SE
In-Cosmos 22 4.2 23:29:31 24° S 23:32:55 74° E 23:38:23 10° NNE
Cosmos 1908 3.2 23:29:12 10° N 23:33:01 74° E 23:34:48 29° SSE
Cosmos 2333 4.2 23:29:02 18° SSW 23:33:17 86° WNW 23:38:59 10° NNE
Cosmos 1867 3.9 23:33:44 24° S 23:36:43 50° ESE 23:42:01 10° NE
Meteor 1-21 4.3 23:34:35 23° S 23:38:19 85° ESE 23:44:10 10° NNE
Cosmos 1626 2.3 23:37:36 31° SSE 23:39:05 57° E 23:42:43 10° NNE
Cosmos 1842 4.3 23:38:57 19° SW 23:41:17 37° WNW 23:44:56 10° N
Cosmos 1953 2.8 23:38:30 10° N 23:42:29 54° ENE 23:44:46 23° SE
USA 215 3.2 23:36:37 10° ENE 23:43:11 71° SSE 23:49:44 10° SW
Cosmos 2278 Rocket 2.2 23:38:45 10° NNW 23:44:29 90° NE 23:48:51 18° SSE
Cosmos 468 4.5 23:40:30 10° NNW 23:45:45 77° WSW 23:49:03 23° SSE
Sich 1 Rocket 4.1 23:47:34 10° NNW 23:51:48 47° W 23:54:00 25° SSW
Cosmos 1674 2.6 23:50:45 31° SSW 23:52:26 85° W 23:56:14 10° N
